When you browse on this site, cookies collect data to enhance your experience and personalize the content and advertising you see.
Visit our Privacy Policy to learn more. By continuing to use the site, you agree to this use of cookies and data.
  • en Belgique
  • Liste des pays
  • À 7 jours
  • Température de l'eau
  • Carte météo
  • Widgets météo
  • user-avatar
    Se connecter

    Météo par heure à Leugino

    Ce jour, 21 Septembre, Samedi

    Heure Température Précipitation Vent Pression Humidité
    00:00 +1°C° 0 mm 2 m/s 744 mmHg 94%
    01:00 -1°C° 0 mm 2 m/s 744 mmHg 94%
    02:00 -1°C° 0 mm 2 m/s 744 mmHg 95%
    03:00 -1°C° 0 mm 2 m/s 744 mmHg 95%
    04:00 -1°C° 0 mm 2 m/s 744 mmHg 95%
    05:00 -1°C° 0 mm 2 m/s 744 mmHg 95%
    06:00 +1°C° 0 mm 2 m/s 744 mmHg 90%
    07:00 +2°C° 0 mm 2 m/s 744 mmHg 86%
    08:00 +3°C° 0 mm 2 m/s 744 mmHg 82%
    09:00 +4°C° 0 mm 3 m/s 743 mmHg 76%
    10:00 +5°C° 0 mm 3 m/s 743 mmHg 70%
    11:00 +8°C° 0 mm 3 m/s 742 mmHg 65%
    12:00 +8°C° 0.2 mm 3 m/s 742 mmHg 64%
    13:00 +9°C° 0.2 mm 3 m/s 742 mmHg 63%
    14:00 +9°C° 0.2 mm 3 m/s 741 mmHg 62%
    15:00 +8°C° 0.2 mm 3 m/s 741 mmHg 70%
    16:00 +7°C° 0.2 mm 2 m/s 740 mmHg 77%
    17:00 +6°C° 0.2 mm 2 m/s 740 mmHg 84%
    18:00 +5°C° 0.1 mm 2 m/s 739 mmHg 88%
    19:00 +4°C° 0.1 mm 2 m/s 739 mmHg 92%
    20:00 +4°C° 0.1 mm 1 m/s 739 mmHg 96%
    21:00 +5°C° 0 mm 1 m/s 738 mmHg 97%
    22:00 +5°C° 0 mm 1 m/s 737 mmHg 97%
    23:00 +5°C° 0 mm 1 m/s 737 mmHg 97%

    Demain, 22 Septembre, Dimanche

    Heure Température Précipitation Vent Pression Humidité
    00:00 +5°C° 0.4 mm 1 m/s 736 mmHg 97%
    01:00 +5°C° 0.4 mm 1 m/s 736 mmHg 97%
    02:00 +5°C° 0.4 mm 1 m/s 735 mmHg 97%
    03:00 +4°C° 0.5 mm 2 m/s 735 mmHg 96%
    04:00 +3°C° 0.5 mm 3 m/s 735 mmHg 95%
    05:00 +3°C° 0.5 mm 4 m/s 734 mmHg 94%
    06:00 +3°C° 0 mm 4 m/s 734 mmHg 92%
    07:00 +3°C° 0 mm 4 m/s 735 mmHg 90%
    08:00 +3°C° 0 mm 4 m/s 735 mmHg 88%
    09:00 +2°C° 0.1 mm 5 m/s 735 mmHg 82%
    10:00 +3°C° 0.1 mm 5 m/s 735 mmHg 76%
    11:00 +3°C° 0.1 mm 6 m/s 736 mmHg 70%
    12:00 +3°C° 0.2 mm 6 m/s 736 mmHg 74%
    13:00 +2°C° 0.2 mm 6 m/s 737 mmHg 78%
    14:00 +2°C° 0.2 mm 6 m/s 737 mmHg 81%
    15:00 +2°C° 0.1 mm 6 m/s 738 mmHg 81%
    16:00 +2°C° 0.1 mm 5 m/s 738 mmHg 81%
    17:00 +2°C° 0.1 mm 5 m/s 739 mmHg 80%
    18:00 +1°C° 0 mm 5 m/s 740 mmHg 82%
    19:00 +1°C° 0 mm 5 m/s 740 mmHg 84%
    20:00 +1°C° 0 mm 4 m/s 741 mmHg 86%
    21:00 +1°C° 0 mm 4 m/s 741 mmHg 86%
    22:00 0°C° 0 mm 4 m/s 742 mmHg 86%
    23:00 0°C° 0 mm 4 m/s 742 mmHg 86%

    Après-demain, 23 Septembre, Lundi

    Heure Température Précipitation Vent Pression Humidité
    00:00 0°C° 0 mm 4 m/s 743 mmHg 87%
    01:00 0°C° 0 mm 4 m/s 743 mmHg 88%
    02:00 -1°C° 0 mm 4 m/s 744 mmHg 89%
    03:00 -1°C° 0 mm 4 m/s 744 mmHg 87%
    04:00 -1°C° 0 mm 4 m/s 744 mmHg 86%
    05:00 -1°C° 0 mm 4 m/s 745 mmHg 84%
    06:00 0°C° 0 mm 4 m/s 745 mmHg 81%
    07:00 0°C° 0 mm 4 m/s 745 mmHg 79%
    08:00 0°C° 0 mm 5 m/s 745 mmHg 76%
    09:00 +2°C° 0 mm 5 m/s 745 mmHg 70%
    10:00 +3°C° 0 mm 5 m/s 746 mmHg 64%
    11:00 +5°C° 0 mm 5 m/s 746 mmHg 58%
    12:00 +5°C° 0 mm 5 m/s 746 mmHg 60%
    13:00 +5°C° 0 mm 5 m/s 745 mmHg 62%
    14:00 +5°C° 0 mm 5 m/s 745 mmHg 65%
    15:00 +4°C° 0.1 mm 4 m/s 745 mmHg 70%
    16:00 +4°C° 0.1 mm 4 m/s 745 mmHg 76%
    17:00 +3°C° 0.1 mm 4 m/s 745 mmHg 82%
    18:00 +2°C° 0.1 mm 3 m/s 745 mmHg 85%
    19:00 +2°C° 0.1 mm 3 m/s 746 mmHg 88%
    20:00 +1°C° 0.1 mm 3 m/s 746 mmHg 91%
    21:00 +1°C° 0 mm 3 m/s 746 mmHg 92%
    22:00 0°C° 0 mm 3 m/s 746 mmHg 94%
    23:00 0°C° 0 mm 3 m/s 746 mmHg 96%

    24 Septembre, Mardi

    Heure Température Précipitation Vent Pression Humidité
    00:00 +1°C° 0 mm 2 m/s 746 mmHg 96%
    01:00 +1°C° 0 mm 2 m/s 746 mmHg 96%
    02:00 +1°C° 0 mm 2 m/s 747 mmHg 96%
    03:00 +1°C° 0 mm 2 m/s 746 mmHg 96%
    04:00 +1°C° 0 mm 2 m/s 746 mmHg 95%
    05:00 0°C° 0 mm 3 m/s 746 mmHg 94%
    06:00 0°C° 0 mm 3 m/s 746 mmHg 89%
    07:00 0°C° 0 mm 3 m/s 746 mmHg 85%
    08:00 +1°C° 0 mm 3 m/s 746 mmHg 80%
    09:00 +1°C° 0 mm 3 m/s 747 mmHg 80%
    10:00 +2°C° 0 mm 3 m/s 747 mmHg 80%
    11:00 +2°C° 0 mm 3 m/s 747 mmHg 80%
    12:00 +3°C° 0.1 mm 3 m/s 747 mmHg 77%
    13:00 +3°C° 0.1 mm 3 m/s 747 mmHg 74%
    14:00 +4°C° 0.1 mm 3 m/s 746 mmHg 71%
    15:00 +3°C° 0 mm 3 m/s 746 mmHg 75%
    16:00 +3°C° 0 mm 3 m/s 746 mmHg 79%
    17:00 +4°C° 0 mm 2 m/s 746 mmHg 82%
    18:00 +3°C° 0 mm 2 m/s 746 mmHg 85%
    19:00 +2°C° 0 mm 2 m/s 746 mmHg 88%
    20:00 +3°C° 0 mm 1 m/s 746 mmHg 91%
    21:00 +2°C° 0 mm 1 m/s 746 mmHg 93%
    22:00 +1°C° 0 mm 1 m/s 746 mmHg 94%
    23:00 +1°C° 0 mm 1 m/s 746 mmHg 96%

    25 Septembre, Mercredi

    Heure Température Précipitation Vent Pression Humidité
    00:00 0°C° 0 mm 1 m/s 746 mmHg 96%
    01:00 0°C° 0 mm 1 m/s 746 mmHg 97%
    02:00 0°C° 0 mm 1 m/s 746 mmHg 97%
    03:00 0°C° 0 mm 1 m/s 746 mmHg 97%
    04:00 0°C° 0 mm 1 m/s 746 mmHg 96%
    05:00 0°C° 0 mm 1 m/s 746 mmHg 96%
    06:00 +1°C° 0 mm 1 m/s 746 mmHg 92%
    07:00 +2°C° 0 mm 1 m/s 747 mmHg 88%
    08:00 +3°C° 0 mm 1 m/s 747 mmHg 83%
    09:00 +3°C° 0 mm 1 m/s 747 mmHg 80%
    10:00 +4°C° 0 mm 1 m/s 747 mmHg 77%
    11:00 +4°C° 0 mm 1 m/s 747 mmHg 74%
    12:00 +5°C° 0 mm 1 m/s 747 mmHg 72%
    13:00 +5°C° 0 mm 1 m/s 747 mmHg 69%
    14:00 +5°C° 0 mm 1 m/s 747 mmHg 67%
    15:00 +5°C° 0 mm 1 m/s 747 mmHg 69%
    16:00 +4°C° 0 mm 1 m/s 747 mmHg 71%
    17:00 +4°C° 0 mm 1 m/s 747 mmHg 73%
    18:00 +3°C° 0 mm 1 m/s 748 mmHg 76%
    19:00 +2°C° 0 mm 0 m/s 748 mmHg 79%
    20:00 +1°C° 0 mm 0 m/s 748 mmHg 82%
    21:00 +1°C° 0 mm 0 m/s 748 mmHg 85%
    22:00 +1°C° 0 mm 1 m/s 748 mmHg 87%
    23:00 0°C° 0 mm 1 m/s 749 mmHg 90%

    26 Septembre, Jeudi

    Heure Température Précipitation Vent Pression Humidité
    00:00 0°C° 0 mm 1 m/s 749 mmHg 90%
    01:00 0°C° 0 mm 1 m/s 749 mmHg 90%
    02:00 0°C° 0 mm 1 m/s 749 mmHg 90%
    03:00 0°C° 0 mm 1 m/s 749 mmHg 89%
    04:00 0°C° 0 mm 1 m/s 749 mmHg 89%
    05:00 0°C° 0 mm 1 m/s 749 mmHg 89%
    06:00 +1°C° 0 mm 1 m/s 750 mmHg 83%
    07:00 +2°C° 0 mm 1 m/s 750 mmHg 77%
    08:00 +4°C° 0 mm 1 m/s 750 mmHg 71%
    09:00 +4°C° 0 mm 0 m/s 750 mmHg 66%
    10:00 +5°C° 0 mm 0 m/s 750 mmHg 61%
    11:00 +6°C° 0 mm 0 m/s 750 mmHg 56%
    12:00 +6°C° 0 mm 0 m/s 750 mmHg 56%
    13:00 +6°C° 0 mm 0 m/s 750 mmHg 56%
    14:00 +6°C° 0 mm 0 m/s 750 mmHg 57%
    15:00 +5°C° 0 mm 0 m/s 750 mmHg 60%
    16:00 +4°C° 0 mm 0 m/s 750 mmHg 62%
    17:00 +4°C° 0 mm 0 m/s 750 mmHg 65%
    18:00 +3°C° 0 mm 0 m/s 750 mmHg 67%
    19:00 +3°C° 0 mm 0 m/s 750 mmHg 68%
    20:00 +2°C° 0 mm 0 m/s 750 mmHg 70%
    21:00 +2°C° 0 mm 0 m/s 751 mmHg 71%
    22:00 +1°C° 0 mm 0 m/s 751 mmHg 73%
    23:00 +1°C° 0 mm 0 m/s 751 mmHg 75%
    Voir plus